�N����,����,�~����,�C��,���x,�C��,����,���ϕ���,�ő�u�ԕ���,�ő厞����,���˗�,�I�_���x,�n�����x,�ő啗���N��,DTYPE
"22/05/07","00:10",0.0,16.6,80.0,1014.0,276.0,0.6,1.2,262.1,0.00,13.2,17.6,"00:08:00",1
"22/05/07","00:20",0.0,16.3,80.3,1013.5,297.0,1.0,2.2,315.6,0.00,12.9,17.4,"00:14:00",1
"22/05/07","00:30",0.0,16.3,80.8,1014.0,291.6,1.5,2.1,308.8,0.00,13.0,17.6,"00:23:44",1
"22/05/07","00:40",0.0,16.4,81.2,1013.8,273.2,0.6,1.4,292.5,0.00,13.2,17.4,"00:36:40",1
"22/05/07","00:50",0.0,16.4,81.1,1014.0,331.0,0.5,1.7,71.5,0.00,13.2,17.5,"00:47:36",1
"22/05/07","01:00",0.0,16.6,81.0,1013.8,319.6,0.6,1.7,333.1,0.00,13.4,17.4,"00:58:32",1
"22/05/07","01:10",0.0,16.7,80.6,1013.8,323.8,0.6,1.9,327.0,0.00,13.4,17.1,"01:01:12",1
"22/05/07","01:20",0.0,17.0,79.9,1014.0,65.5,0.7,1.9,75.9,0.00,13.5,17.2,"01:14:00",1
"22/05/07","01:30",0.0,16.8,79.3,1014.0,349.1,0.3,1.1,127.1,0.00,13.2,17.3,"01:20:16",1
"22/05/07","01:40",0.0,16.6,79.4,1013.5,289.5,0.2,1.2,308.9,0.00,13.1,17.1,"01:31:12",1
"22/05/07","01:50",0.0,16.0,79.6,1013.5,242.0,0.2,0.8,351.9,0.00,12.5,17.2,"01:46:16",1
"22/05/07","02:00",0.0,15.6,80.4,1013.3,271.9,0.3,1.2,312.3,0.00,12.3,17.0,"01:58:08",1
"22/05/07","02:10",0.0,15.9,81.2,1013.0,316.5,0.2,0.9,341.2,0.00,12.7,17.0,"02:06:08",1
"22/05/07","02:20",0.0,16.0,81.8,1013.3,291.9,0.6,1.3,275.3,0.00,12.9,17.2,"02:10:02",1
"22/05/07","02:30",0.0,15.7,82.1,1013.3,287.0,1.0,1.4,314.5,0.00,12.7,17.0,"02:20:40",1
"22/05/07","02:40",0.0,15.1,82.7,1012.8,287.0,1.2,1.7,313.6,0.00,12.2,17.1,"02:35:12",1
"22/05/07","02:50",0.0,14.9,83.6,1013.0,280.8,1.5,2.2,263.1,0.00,12.2,16.8,"02:48:48",1
"22/05/07","03:00",0.0,14.8,84.5,1012.8,285.8,1.5,2.0,264.6,0.00,12.3,16.8,"02:54:16",1
"22/05/07","03:10",0.0,14.5,85.2,1012.6,298.3,1.0,1.9,325.1,0.00,12.1,16.8,"03:08:08",1
"22/05/07","03:20",0.0,14.1,85.6,1012.8,285.7,1.1,1.8,315.9,0.00,11.8,16.5,"03:10:24",1
"22/05/07","03:30",0.0,13.9,86.5,1012.6,297.7,1.3,1.8,306.0,0.00,11.7,16.7,"03:29:10",1
"22/05/07","03:40",0.0,13.7,87.0,1012.3,297.6,0.7,1.7,297.9,0.00,11.6,16.7,"03:32:08",1
"22/05/07","03:50",0.0,13.5,87.5,1012.6,307.7,1.3,2.4,332.3,0.00,11.5,16.7,"03:45:48",1
"22/05/07","04:00",0.0,13.5,88.3,1012.3,300.8,1.5,2.6,317.9,0.00,11.6,16.6,"03:52:30",1
"22/05/07","04:10",0.0,13.6,88.9,1012.6,303.0,1.5,1.9,316.1,0.00,11.8,16.7,"04:04:22",1
"22/05/07","04:20",0.0,13.6,89.1,1012.3,295.7,0.8,1.9,320.5,0.00,11.9,16.5,"04:11:36",1
"22/05/07","04:30",0.0,13.3,89.7,1012.6,323.7,1.6,2.0,329.0,0.00,11.7,16.5,"04:23:16",1
"22/05/07","04:40",0.0,13.2,90.0,1012.3,303.8,1.2,2.1,326.6,0.00,11.6,16.6,"04:30:02",1
"22/05/07","04:50",0.0,13.0,90.3,1012.6,311.7,1.2,1.9,318.1,0.00,11.5,16.4,"04:49:04",1
"22/05/07","05:00",0.0,12.9,90.6,1012.3,311.9,1.3,2.0,326.6,0.00,11.4,16.5,"04:51:00",1
"22/05/07","05:10",0.0,12.7,90.9,1012.1,315.4,1.6,2.2,322.0,0.00,11.3,16.4,"05:07:46",1
"22/05/07","05:20",0.0,12.4,91.1,1012.3,306.9,1.3,2.1,320.5,0.00,11.0,16.3,"05:10:08",1
"22/05/07","05:30",0.0,12.4,91.5,1012.3,313.2,1.7,2.1,320.5,0.00,11.1,16.2,"05:22:50",1
"22/05/07","05:40",0.0,12.4,91.6,1012.3,311.7,1.5,2.0,311.6,0.00,11.1,16.3,"05:33:30",1
"22/05/07","05:50",0.0,12.3,91.9,1012.3,321.9,2.0,2.5,323.1,0.00,11.1,16.2,"05:45:46",1
"22/05/07","06:00",0.0,12.4,92.2,1012.3,292.3,1.2,1.7,322.3,0.00,11.2,16.2,"05:50:24",1
"22/05/07","06:10",0.0,12.9,92.4,1012.8,320.4,1.3,2.1,315.7,0.00,11.7,16.2,"06:00:40",1
"22/05/07","06:20",0.0,13.0,92.4,1012.8,303.0,1.0,1.6,310.9,0.00,11.8,16.2,"06:14:00",1
"22/05/07","06:30",0.0,13.5,92.7,1012.8,306.3,1.0,1.2,324.3,0.01,12.4,16.2,"06:26:56",1
"22/05/07","06:40",0.0,14.7,92.8,1012.8,317.5,0.8,1.4,320.7,0.02,13.6,16.0,"06:38:40",1
"22/05/07","06:50",0.0,15.8,92.7,1012.6,325.4,0.7,1.1,332.4,0.04,14.7,16.1,"06:41:44",1
"22/05/07","07:00",0.0,17.0,92.6,1012.8,293.8,0.5,1.1,283.2,0.06,15.8,16.1,"06:58:40",1
"22/05/07","07:10",0.0,16.9,92.1,1012.6,322.6,1.1,2.2,322.6,0.09,15.6,16.1,"07:08:32",1
"22/05/07","07:20",0.0,17.3,91.2,1012.8,325.4,1.5,2.0,321.0,0.11,15.9,15.9,"07:10:56",1
"22/05/07","07:30",0.0,18.4,90.0,1012.8,318.6,0.7,1.4,327.9,0.14,16.8,15.8,"07:21:12",1
"22/05/07","07:40",0.0,19.5,88.1,1013.0,347.8,0.3,1.0,55.7,0.17,17.5,15.9,"07:34:08",1
"22/05/07","07:50",0.0,20.0,84.7,1013.0,178.9,0.5,1.4,207.7,0.20,17.4,15.9,"07:45:44",1
"22/05/07","08:00",0.0,20.6,79.1,1013.0,123.3,0.6,2.2,200.9,0.22,16.9,16.0,"07:59:44",1
"22/05/07","08:10",0.0,21.0,74.3,1013.0,113.1,1.0,2.5,139.5,0.25,16.3,15.9,"08:00:40",1
"22/05/07","08:20",0.0,21.2,72.4,1012.3,139.7,1.5,3.5,144.4,0.28,16.1,16.0,"08:17:28",1
"22/05/07","08:30",0.0,21.5,70.8,1012.3,125.5,1.2,3.5,95.3,0.31,16.0,15.9,"08:25:04",1
"22/05/07","08:40",0.0,21.9,70.0,1012.1,111.6,1.0,2.6,121.2,0.33,16.2,16.2,"08:33:52",1
"22/05/07","08:50",0.0,22.0,69.0,1012.1,137.7,1.2,3.3,115.4,0.35,16.1,16.2,"08:47:52",1
"22/05/07","09:00",0.0,22.4,67.2,1011.6,20.8,1.0,2.7,136.2,0.38,16.1,16.1,"08:50:32",1
"22/05/07","09:10",0.0,22.7,66.1,1011.9,121.6,1.0,2.7,151.1,0.40,16.1,16.2,"09:09:36",1
"22/05/07","09:20",0.0,22.9,66.6,1011.2,162.5,1.2,3.6,132.9,0.42,16.4,16.3,"09:16:00",1
"22/05/07","09:30",0.0,23.3,64.5,1011.4,277.5,0.6,1.9,43.4,0.44,16.3,16.1,"09:20:08",1
"22/05/07","09:40",0.0,23.4,63.1,1010.9,120.2,1.2,2.1,143.5,0.46,16.0,16.2,"09:30:32",1
"22/05/07","09:50",0.0,23.7,62.3,1010.9,239.4,0.6,1.9,350.5,0.48,16.1,16.5,"09:45:36",1
"22/05/07","10:00",0.0,23.7,61.1,1010.7,160.5,1.0,2.8,325.5,0.50,15.8,16.3,"09:56:56",1
"22/05/07","10:10",0.0,24.4,61.0,1010.0,163.1,1.1,2.8,160.7,0.52,16.4,16.4,"10:02:40",1
"22/05/07","10:20",0.0,24.4,58.4,1009.7,146.1,1.3,3.2,214.9,0.53,15.8,16.4,"10:19:28",1
"22/05/07","10:30",0.0,24.8,57.9,1009.7,194.5,1.3,3.3,145.5,0.55,16.0,16.7,"10:27:28",1
"22/05/07","10:40",0.0,24.7,55.0,1009.5,156.7,1.6,3.3,98.2,0.55,15.1,16.7,"10:34:56",1
"22/05/07","10:50",0.0,25.5,53.2,1009.5,122.3,1.0,2.5,126.7,0.61,15.3,16.7,"10:44:16",1
"22/05/07","11:00",0.0,25.8,54.6,1009.3,145.3,1.7,3.5,135.1,0.63,16.0,17.0,"10:56:08",1
"22/05/07","11:10",0.0,26.0,53.1,1009.5,120.0,1.6,3.9,143.5,0.66,15.8,16.9,"11:05:44",1
"22/05/07","11:20",0.0,25.9,53.4,1009.5,120.3,1.8,3.6,107.4,0.61,15.8,17.0,"11:13:36",1
"22/05/07","11:30",0.0,26.1,53.9,1009.3,130.7,1.3,3.1,122.3,0.46,16.1,17.0,"11:22:48",1
"22/05/07","11:40",0.0,26.2,52.8,1008.8,197.5,1.7,4.2,138.9,0.57,15.9,17.2,"11:32:32",1
"22/05/07","11:50",0.0,25.4,53.9,1008.8,128.9,1.3,3.5,130.3,0.32,15.4,17.3,"11:43:44",1
"22/05/07","12:00",0.0,26.6,53.6,1008.8,174.8,2.3,5.9,228.4,0.68,16.5,17.4,"11:56:16",1
"22/05/07","12:10",0.0,26.3,51.2,1008.8,136.1,2.0,4.4,146.9,0.52,15.5,17.5,"12:00:56",1
"22/05/07","12:20",0.0,26.5,51.9,1008.6,133.6,1.7,3.6,139.3,0.42,15.9,17.3,"12:12:32",1
"22/05/07","12:30",0.0,25.9,52.4,1008.1,128.1,1.6,4.1,143.1,0.23,15.5,17.7,"12:28:08",1
"22/05/07","12:40",0.0,25.6,51.0,1007.6,87.9,1.0,2.1,133.3,0.19,14.8,17.6,"12:30:40",1
"22/05/07","12:50",0.0,26.4,50.8,1007.4,119.4,0.8,1.9,173.1,0.32,15.4,17.7,"12:47:04",1
"22/05/07","13:00",0.0,26.2,49.0,1007.4,140.5,1.2,3.7,236.2,0.20,14.7,17.8,"12:58:24",1
"22/05/07","13:10",0.0,26.0,52.1,1007.1,257.3,1.6,3.3,354.9,0.30,15.5,17.9,"13:00:16",1
"22/05/07","13:20",0.0,27.4,49.4,1007.4,198.2,1.5,3.9,244.3,0.57,15.9,18.0,"13:11:04",1
"22/05/07","13:30",0.0,27.5,48.1,1007.4,183.9,1.2,3.9,196.5,0.43,15.6,18.1,"13:21:52",1
"22/05/07","13:40",0.0,27.5,48.3,1007.4,289.9,1.0,4.0,339.8,0.38,15.7,18.0,"13:36:16",1
"22/05/07","13:50",0.0,26.5,47.8,1006.9,235.7,1.7,4.2,220.3,0.19,14.6,18.2,"13:41:36",1
"22/05/07","14:00",0.0,27.0,48.9,1006.9,305.8,1.6,4.7,330.6,0.48,15.4,18.1,"13:55:44",1
"22/05/07","14:10",0.0,26.5,48.0,1006.9,321.4,1.8,4.1,64.4,0.25,14.6,18.2,"14:04:40",1
"22/05/07","14:20",0.0,26.5,49.2,1006.4,293.6,1.6,3.5,345.7,0.21,15.0,18.4,"14:13:36",1
"22/05/07","14:30",0.0,26.6,48.9,1006.4,338.6,1.5,2.9,343.0,0.19,15.0,18.4,"14:21:20",1
"22/05/07","14:40",0.0,27.2,48.4,1006.4,289.6,1.3,3.1,320.4,0.32,15.4,18.6,"14:30:56",1
"22/05/07","14:50",0.0,27.3,46.8,1006.0,238.5,1.0,2.2,183.4,0.23,15.0,18.5,"14:47:28",1
"22/05/07","15:00",0.0,26.5,49.2,1006.0,199.5,2.7,6.2,196.1,0.17,15.0,18.5,"14:51:36",1
"22/05/07","15:10",0.0,26.5,51.3,1006.0,203.0,2.1,5.2,228.2,0.20,15.7,18.6,"15:07:12",1
"22/05/07","15:20",0.0,27.3,48.9,1005.5,179.9,2.7,4.9,157.6,0.42,15.7,18.8,"15:15:36",1
"22/05/07","15:30",0.0,28.0,46.0,1005.7,216.7,2.5,5.6,199.5,0.54,15.3,18.6,"15:20:32",1
"22/05/07","15:40",0.0,28.1,44.5,1006.2,224.7,2.5,5.5,247.9,0.48,14.9,18.7,"15:35:20",1
"22/05/07","15:50",0.0,28.1,46.6,1006.0,230.3,1.8,4.4,216.8,0.39,15.6,18.6,"15:44:40",1
"22/05/07","16:00",0.0,27.8,46.9,1005.7,214.0,2.5,4.8,235.2,0.38,15.5,18.8,"15:53:20",1
"22/05/07","16:10",0.0,27.8,46.2,1005.5,185.0,2.5,4.4,184.0,0.38,15.2,18.8,"16:00:24",1
"22/05/07","16:20",0.0,27.9,44.6,1005.5,190.9,2.8,5.9,239.7,0.34,14.8,18.8,"16:19:04",1
"22/05/07","16:30",0.0,28.2,43.9,1005.7,273.6,1.5,3.6,356.4,0.29,14.8,18.9,"16:25:44",1
"22/05/07","16:40",0.0,28.3,44.1,1005.5,293.8,1.5,3.9,191.7,0.25,15.0,19.0,"16:38:00",1
"22/05/07","16:50",0.0,26.9,46.0,1005.2,227.0,2.5,5.6,214.5,0.15,14.4,18.9,"16:46:00",1
"22/05/07","17:00",0.0,26.7,47.9,1005.2,220.0,1.6,3.7,182.6,0.11,14.8,19.1,"16:59:36",1
"22/05/07","17:10",0.0,26.3,47.9,1005.5,224.2,2.3,4.2,206.8,0.09,14.4,19.1,"17:03:04",1
"22/05/07","17:20",0.0,26.6,47.3,1005.5,229.9,1.8,4.1,216.5,0.17,14.5,19.1,"17:18:48",1
"22/05/07","17:30",0.0,26.4,47.7,1005.5,213.0,2.5,5.0,229.1,0.14,14.5,19.2,"17:22:00",1
"22/05/07","17:40",0.0,26.4,47.4,1005.5,221.9,1.7,4.5,183.4,0.12,14.4,19.2,"17:31:20",1
"22/05/07","17:50",0.0,26.3,47.5,1006.0,241.9,1.8,3.5,197.6,0.10,14.3,19.2,"17:41:04",1
"22/05/07","18:00",0.0,25.8,48.3,1006.0,266.4,1.3,4.1,247.7,0.05,14.1,19.2,"17:52:00",1
"22/05/07","18:10",0.0,25.5,49.4,1006.2,247.2,1.1,2.4,235.3,0.02,14.2,19.0,"18:01:52",1
"22/05/07","18:20",0.0,25.4,50.6,1006.4,240.1,1.2,2.4,245.5,0.02,14.5,19.2,"18:15:04",1
"22/05/07","18:30",0.0,25.1,50.6,1006.7,244.7,1.6,3.4,231.2,0.01,14.2,19.2,"18:25:20",1
"22/05/07","18:40",0.0,24.7,52.8,1006.9,320.9,2.5,5.5,344.4,0.01,14.5,19.3,"18:39:20",1
"22/05/07","18:50",0.0,23.8,55.0,1006.9,345.2,3.5,6.4,330.2,0.00,14.3,19.3,"18:49:20",1
"22/05/07","19:00",0.0,23.2,55.8,1007.1,338.9,3.9,8.0,324.3,0.00,13.9,19.2,"18:53:36",1
"22/05/07","19:10",0.0,22.8,55.6,1007.6,345.5,4.4,8.7,337.2,0.00,13.5,19.2,"19:06:40",1
"22/05/07","19:20",0.0,22.5,55.1,1007.6,347.8,5.1,8.1,332.6,0.00,13.1,19.2,"19:17:20",1
"22/05/07","19:30",0.0,22.3,55.8,1008.3,347.0,4.2,6.8,349.8,0.00,13.1,19.3,"19:29:36",1
"22/05/07","19:40",0.0,22.0,56.8,1008.1,342.9,4.2,9.0,334.0,0.00,13.1,19.1,"19:33:52",1
"22/05/07","19:50",0.0,21.8,58.4,1008.6,343.6,3.9,7.4,353.5,0.00,13.3,18.9,"19:44:56",1
"22/05/07","20:00",0.0,21.7,60.0,1008.6,344.7,4.1,7.1,351.9,0.00,13.6,19.1,"19:58:56",1
"22/05/07","20:10",0.0,21.5,61.2,1008.8,343.3,4.0,10.1,345.8,0.00,13.8,19.0,"20:03:44",1
"22/05/07","20:20",0.0,21.3,62.2,1008.8,343.9,3.6,7.9,347.1,0.00,13.8,19.1,"20:15:28",1
"22/05/07","20:30",0.0,21.1,62.9,1009.0,341.2,3.9,7.1,345.7,0.00,13.8,18.7,"20:26:24",1
"22/05/07","20:40",0.0,21.0,63.5,1009.3,338.9,4.2,6.6,324.2,0.00,13.9,19.0,"20:36:32",1
"22/05/07","20:50",0.0,20.9,64.4,1009.5,337.9,3.9,6.3,358.9,0.00,14.0,19.0,"20:43:44",1
"22/05/07","21:00",0.0,20.8,64.9,1009.7,334.8,3.6,5.9,309.4,0.00,14.0,18.8,"20:54:40",1
"22/05/07","21:10",0.0,20.7,65.2,1009.5,329.2,3.0,4.9,337.9,0.00,14.0,18.8,"21:08:32",1
"22/05/07","21:20",0.0,20.8,65.3,1010.0,331.8,3.6,7.0,25.1,0.00,14.1,18.7,"21:15:20",1
"22/05/07","21:30",0.0,20.8,65.5,1010.0,309.2,2.6,4.2,342.1,0.00,14.1,18.8,"21:26:16",1
"22/05/07","21:40",0.0,20.8,65.1,1010.0,310.1,3.6,7.8,340.5,0.00,14.0,18.7,"21:37:36",1
"22/05/07","21:50",0.0,20.7,65.2,1010.4,303.0,3.2,7.2,331.8,0.00,14.0,18.8,"21:46:08",1
"22/05/07","22:00",0.0,20.5,65.9,1010.7,312.5,3.6,5.9,323.3,0.00,14.0,18.9,"21:51:44",1
"22/05/07","22:10",0.0,20.4,67.0,1010.7,319.2,3.0,5.7,344.7,0.00,14.1,18.6,"22:09:44",1
"22/05/07","22:20",0.0,20.0,68.8,1011.2,350.9,2.1,5.5,319.2,0.00,14.1,18.6,"22:19:20",1
"22/05/07","22:30",0.0,19.3,70.8,1011.2,337.1,3.2,5.9,346.9,0.00,13.9,18.4,"22:24:16",1
"22/05/07","22:40",0.0,18.8,73.0,1011.6,319.2,3.0,6.0,325.2,0.00,13.9,18.6,"22:38:48",1
"22/05/07","22:50",0.0,18.3,75.7,1011.6,319.3,3.4,6.6,349.3,0.00,14.0,18.7,"22:49:12",1
"22/05/07","23:00",0.0,17.9,77.3,1011.6,322.2,4.1,9.0,324.9,0.00,13.9,18.8,"22:59:12",1
"22/05/07","23:10",0.0,17.7,77.9,1011.4,328.5,3.9,9.3,327.4,0.00,13.8,18.2,"23:04:40",1
"22/05/07","23:20",0.0,17.6,78.1,1011.6,333.6,3.9,6.7,328.3,0.00,13.8,18.6,"23:16:48",1
"22/05/07","23:30",0.0,17.4,78.2,1012.1,339.1,3.2,6.7,342.9,0.00,13.6,18.2,"23:22:56",1
"22/05/07","23:40",0.0,17.2,77.9,1011.9,340.7,3.1,5.1,319.9,0.00,13.4,18.4,"23:39:04",1
"22/05/07","23:50",0.0,17.0,77.6,1012.1,335.4,3.1,5.6,326.5,0.00,13.1,18.2,"23:41:36",1
"22/05/07","24:00",0.0,16.9,77.2,1011.6,319.6,2.5,4.5,316.8,0.00,12.9,18.3,"23:54:40",1
